Hourly Data Report for October 05, 2016

All times are specified in Local Standard Time (LST). Add 1 hour to adjust for Daylight Saving Time where and when it is observed.

QIKIQTARJUAQ A
NUNAVUT

67°32'48.000" N
64°01'54.000" W
5.50 m
2400577
YVM

Download Data

Hourly Data (October 2016)
Hourly Data Report for October 5, 2016
Temp Definition
°C
Dew Point Temp Definition
°C
Rel Hum Definition
%
Wind Dir Definition
10's deg

Wind Spd Definition
km/h
Visibility Definition
km
Stn Press Definition
kPa
Hmdx Definition


Wind Chill Definition


Weather Definition


TIME
00:00 Legend Double Dagger 0.0 -2.0 87 21 8 16.1 99.79   -3 LegendNANA
01:00 Legend Double Dagger -0.1 -2.0 87 LegendMM 4 16.1 99.80   -1 LegendNANA
02:00 Legend Double Dagger 0.1 -2.3 84 11 4 16.1 99.82     LegendNANA
03:00 Legend Double Dagger 0.5 -1.9 84   0 16.1 99.85     LegendNANA
04:00 Legend Double Dagger -0.2 -0.9 95 16 8 16.1 99.86   -3 LegendNANA
05:00 Legend Double Dagger 0.7 -1.7 84 LegendMM 8 16.1 99.84     LegendNANA
06:00 Legend Double Dagger 1.1 -1.6 82 36 11 16.1 99.85     LegendNANA
07:00 Legend Double Dagger 1.1 -1.4 84 34 17 16.1 99.89     Rain
08:00 Legend Double Dagger 1.4 -1.5 81 35 13 16.1 99.89     LegendNANA
09:00 Legend Double Dagger 1.2 -0.7 87 34 17 16.1 99.86     LegendNANA
10:00 Legend Double Dagger 1.4 -0.1 90 34 21 16.1 99.87     LegendNANA
11:00 Legend Double Dagger 1.5 -0.1 89 36 41 16.1 99.83     LegendNANA
12:00 Legend Double Dagger 1.6 -0.4 87 36 34 16.1 99.82     LegendNANA
13:00 Legend Double Dagger 2.0 -0.5 84 33 21 16.1 99.81     Rain
14:00 Legend Double Dagger 1.4 0.2 92 33 30 14.5 99.81     Rain
15:00 Legend Double Dagger 1.7 -0.1 88 34 30 16.1 99.84     Rain
16:00 Legend Double Dagger 1.6 0.1 90 34 32 14.5 99.86     Rain
17:00 Legend Double Dagger 1.7 -0.2 88 34 37 16.1 99.87     Rain
18:00 Legend Double Dagger 1.9 0.1 88 34 32 16.1 99.92     Rain
19:00 Legend Double Dagger 2.0 0.2 88 33 39 14.5 99.95     Rain
20:00 Legend Double Dagger 1.5 0.3 92 34 30 4.8 100.07     Rain,Fog
21:00 Legend Double Dagger 1.9 0.1 88 34 28 16.1 100.15     Rain
22:00 Legend Double Dagger 2.1 -0.2 85 35 28 16.1 100.21     Rain
23:00 Legend Double Dagger 1.8 -0.4 85 34 26 16.1 100.27     Rain

Notes on Data Quality.

Legend

  • E = Estimated
  • M = Missing
  • NA = Not Available
  • ‡ = Partner data that is not subject to review by the National Climate Archives
Date modified: